Location: Gälforsberget
(66.6500°N, 22.4167°E)
Time: 19:19:27
(UTC+00:00)

Cosmos 2058 - Pass Details

Date: 11 April 2026
Orbit: 523 x 538 km, 82.5° (Epoch: 19 May)

Event Time Altitude Azimuth Distance (km) Brightness Sun altitude
Rises 19:58:16 0° 340° (NNW) 2,709 8.0 -9.9°
Reaches altitude 10° 20:00:31 10° 347° (NNW) 1,811 6.6 -10.0°
Maximum altitude 20:04:19 42° 59° (ENE) 782 3.5 -10.2°
Enters shadow 20:07:25 14° 128° (SE) 1,543 4.5 -10.4°
